Date,TemperatureHighF,TemperatureAvgF,TemperatureLowF,DewpointHighF,DewpointAvgF,DewpointLowF,HumidityHigh,HumidityAvg,HumidityLow,PressureMaxIn,PressureMinIn,WindSpeedMaxMPH,WindSpeedAvgMPH,GustSpeedMaxMPH,PrecipitationSumIn
2013-3-1,34.0,30.8,27.0,31.0,26.1,21.0,91,83,73,29.99,29.83,5,2,10,0.02
2013-3-2,30.0,26.8,25.0,24.0,22.3,21.0,90,83,71,29.98,29.92,5,2,11,0.01
2013-3-3,29.0,26.2,24.0,23.0,20.3,18.0,90,79,65,30.03,29.94,8,4,16,0.01
2013-3-4,38.0,28.1,21.0,23.0,18.5,15.0,85,68,47,30.14,30.02,9,3,15,0.01
2013-3-5,49.0,37.2,19.0,30.0,18.8,14.0,90,51,26,30.09,29.70,5,2,11,0.01
2013-3-6,43.0,35.0,31.0,37.0,29.0,-99.9,100,83,64,30.12,29.69,5,0,9,0.56
2013-3-7,39.0,35.4,33.0,31.0,29.4,27.0,90,79,67,30.30,30.11,6,2,12,0.03
2013-3-8,37.0,32.7,26.0,29.0,26.7,23.0,89,78,69,30.42,30.29,8,2,15,0.01
2013-3-9,44.0,27.5,22.0,27.0,22.8,20.0,94,85,43,30.43,30.20,0,0,3,0.01
2013-3-10,58.0,42.6,36.0,35.0,29.8,26.0,79,62,34,30.20,30.03,2,0,6,0.01
2013-3-11,64.0,56.0,48.0,49.0,35.5,30.0,83,48,28,30.03,29.74,8,2,20,0.08
2013-3-12,53.0,40.6,37.0,49.0,34.1,28.0,90,78,65,30.03,29.78,10,4,18,0.15
2013-3-13,38.0,32.6,27.0,31.0,25.9,20.0,90,77,51,30.16,29.95,11,5,22,0.01
2013-3-14,40.0,31.0,25.0,22.0,19.4,17.0,75,63,45,30.25,30.14,10,5,19,0.01
2013-3-15,50.0,38.0,24.0,38.0,26.6,19.0,82,64,50,30.16,29.83,8,3,18,0.01
2013-3-16,43.0,38.9,35.0,39.0,36.4,32.0,94,91,82,29.98,29.64,6,1,12,0.03
2013-3-17,38.0,33.3,29.0,32.0,25.0,22.0,87,72,56,30.21,29.97,4,1,8,0.01
2013-3-18,42.0,35.6,31.0,36.0,29.3,-99.9,92,80,66,30.18,29.72,6,2,15,0.43
2013-3-19,48.0,39.8,31.0,42.0,27.6,18.0,94,64,35,30.00,29.71,17,7,32,0.17
2013-3-20,42.0,32.9,26.0,22.0,18.1,15.0,75,55,40,30.01,29.82,11,4,23,0.01
2013-3-21,29.0,24.6,18.0,20.0,14.2,9.0,86,65,48,29.93,29.88,9,4,17,0.00
2013-3-22,37.0,29.3,25.0,21.0,19.4,18.0,78,66,51,30.05,29.92,9,4,17,0.00
2013-3-23,48.0,33.0,19.0,27.0,21.7,17.0,91,66,36,30.05,29.99,7,1,14,0.00
2013-3-24,43.0,33.6,27.0,30.0,23.5,20.0,90,68,46,30.01,29.54,5,2,11,0.00
2013-3-25,36.0,33.3,31.0,34.0,31.0,28.0,94,92,79,29.75,29.47,4,1,10,0.46
2013-3-26,42.0,35.9,32.0,32.0,30.8,29.0,94,83,64,30.09,29.75,7,2,14,0.53
2013-3-27,44.0,36.9,32.0,32.0,28.3,25.0,92,72,49,30.18,30.09,9,4,16,0.03
2013-3-28,44.0,38.4,35.0,32.0,29.2,27.0,79,70,56,30.28,30.15,7,3,14,0.01
2013-3-29,53.0,42.8,35.0,34.0,28.4,23.0,86,60,33,30.29,30.17,8,2,15,0.00
2013-3-30,54.0,41.1,26.0,30.0,24.2,20.0,88,55,27,30.28,30.05,5,1,11,0.00
2013-3-31,50.0,44.9,39.0,46.0,36.2,-99.9,91,75,53,30.05,29.75,5,1,11,0.11